Regional Weather Roundup
Issued by NWS

Home | Current Version | Previous Version | Text Only | Print | Product List | Glossary Off
Versions: 1 2 3 4 5 6 7 8 9 10 11 12 13 14 15 16 17 18 19 20 21 22 23 24 25 26 27 28 29 30 31 32 33 34 35 36 37 38 39 40 41 42 43 44 45 46 47 48 49 50

000
ASUS45 KTFX 220104
RWRMT
MONTANA HOURLY WEATHER ROUNDUP
NATIONAL WEATHER SERVICE GREAT FALLS MT
604 PM MST SUN DEC 21 2014

NOTE: "FAIR" INDICATES FEW OR NO CLOUDS BELOW 12000 FEET WITH NO
SIGNIFICANT WEATHER AND/OR OBSTRUCTIONS TO VISIBILITY.

* THESE STATIONS ARE NOT UNDER NWS QUALITY CONTROL. THEY DO NOT
   REPORT WEATHER SUCH AS PRECIPITATION OR FOG.

MTZ001>007-043-220200-
WEST OF THE DIVIDE
CITY           SKY/WX    TMP DP  RH WIND       PRES   REMARKS
KALISPELL      MOCLDY    39  28  65 W6        29.75R WCI  35
MISSOULA       CLOUDY    37  30  76 NW8       29.84R WCI  31
BUTTE          MOCLDY    30  27  89 NW6       29.78R WCI  24
MULLAN PASS    N/A       28  27  96 NW9       29.82R WCI  19
* ESSEX        N/A       32  31  96 W1         N/A
* LINCOLN      N/A       36  25  64 W7G18      N/A   WCI  30
* LOOKOUT PASS N/A       36  28  73 NE2        N/A
* POLSON       N/A       38  27  65 W2G8       N/A
* RONAN APT    MOCLDY    39  30  70 N/A        N/A
* SEELEY LAKE  N/A       36  27  70 N6G21      N/A   WCI  31
* THOMP F APT  MOCLDY    29  23  78 E4G14      N/A
$$

MTZ008-052>055-220200-
SOUTHWEST MONTANA
CITY           SKY/WX    TMP DP  RH WIND       PRES   REMARKS
BOZEMAN        LGT SNOW  34  30  85 SW10      29.75R WCI  26
DILLON         MOCLDY    36  27  70 W24G37    29.80R WCI  24
* W YELLOWSTON MOCLDY    30  25  82 SW4G9      N/A
* THREE FORKS  MOCLDY    39  39 100 W24G31     N/A   WCI  28
* BOULDER HILL N/A       33  14  45 N6G20      N/A   WCI  27
* MONIDA PASS  N/A       29  18  63 NW24G31    N/A   WCI  15
* RAYNOLDS PAS N/A       32  31  96 NW9G16     N/A   WCI  24
* WHITEHALL    N/A       35  32  89 NW4G12     N/A
* WISE RIVER   N/A       33  26  75 NW13G34    N/A   WCI  24
$$

MTZ009>010-012-014-046-048-049-054-220200-
EAST SLOPES AND CENTRAL MONTANA
CITY           SKY/WX    TMP DP  RH WIND       PRES   REMARKS
CUT BANK       PTCLDY    34  27  76 W14       29.58R WCI  24
GREAT FALLS    CLOUDY    37  21  52 W17       29.61R WCI  27
HELENA         MOCLDY    39  25  57 W21G36    29.69R WCI  29
* DEARBORN     N/A       44  19  37 SW9G15     N/A
* EAST GLACIER N/A       34  23  64 NW18G27    N/A   WCI  23
* MONARCH      N/A       35  14  42 W23G36     N/A   WCI  23
* PENDROY      N/A       37  23  57 W26G34     N/A   WCI  25
* ROGERS PASS  N/A       31  25  78 SE17G31    N/A   WCI  20
* SWEET GRASS  N/A       37  26  64 W25G34     N/A   WCI  25
$$

MTZ011-013-016-021-035-040-045-047-050-051-220200-
NORTH CENTRAL MONTANA
CITY           SKY/WX    TMP DP  RH WIND       PRES   REMARKS
HAVRE          CLOUDY    39  30  70 W15       29.51R WCI  31
LEWISTOWN      CLOUDY    37  30  76 NW17G33   29.58R WCI  27
* N BAR RANCH  FOG       34  30  85 NW30G40   29.52R VSB 1 1/2 WCI  20
* CHESTER      N/A       36  29  76 NW9        N/A   WCI  29
* DENTON       N/A       39  30  70 W20G30     N/A   WCI  29
* GEYSER       N/A       40  19  43 W21G30     N/A   WCI  30
* JUDITH GAP   N/A       37  20  50 NW12G18    N/A   WCI  29
* LOMA         N/A       43  27  53 W14G20     N/A
$$

MTZ017>020-022>027-061-062-220200-
NORTHEAST MONTANA
CITY           SKY/WX    TMP DP  RH WIND       PRES   REMARKS
GLASGOW        CLOUDY    34  30  85 W7        29.37R WCI  28
GLENDIVE       CLOUDY    32  30  92 S5        29.38S VSB 3/4  WCI  27
JORDAN         CLOUDY    39  34  82 W18       29.42R WCI  30
SIDNEY         CLOUDY    34  32  92 CALM      29.38S
WOLF POINT     LGT RAIN  34  30  85 SW7       29.37R WCI  28
* BEAVER HILL  N/A       35  34  96 SW11       N/A   WCI  27
* CIRCLE       N/A       38  37  96 SW3        N/A
* LINDSAY DVD  N/A       39  36  89 W19G27     N/A   WCI  29
* SACO         N/A       37  33  85 SW15       N/A   WCI  28
$$

MTZ028>042-056>058-220200-
SOUTHCENTRAL AND SOUTHEAST MONTANA
CITY           SKY/WX    TMP DP  RH WIND       PRES   REMARKS
BAKER          LGT RAIN  37  37 100 W12       29.40R WCI  29
BILLINGS       CLOUDY    45  19  35 W26G33    29.56R
LIVINGSTON     MOCLDY    36  28  73 SW26G36   29.66R WCI  24
MILES CITY     CLOUDY    41  34  76 W14G25    29.43R
* LAUREL APT   MOCLDY    46  16  30 W15G24     N/A
* ROUNDUP APT  CLOUDY    45  25  45 W16G24     N/A
* ALZADA       N/A       38  36  93 W9         N/A   WCI  32
* HYSHAM       N/A       42  26  53 W11G20     N/A
* LAME DEER    N/A       37  30  76 NW11G24    N/A   WCI  29
* REED POINT   N/A       42  21  43 W17G28     N/A
* ROSCOE HILL  N/A       37  12  36 W9G28      N/A   WCI  30
$$

REGIONAL REPORTS...DAKOTAS
CITY           SKY/WX    TMP DP  RH WIND       PRES   REMARKS
WILLISTON      CLOUDY    34  27  76 CALM      29.37R
DICKINSON      LGT RAIN  39  36  89 SW7       29.35R WCI  34
BEACH          LGT RAIN  36  36 100 W9        29.38R WCI  29
CROSBY         PTCLDY    30  30 100 NE3       29.37R
WATFORD CITY   CLOUDY    34  28  79 CALM      29.34S
BISMARCK       CLOUDY    30  28  92 SE12      29.45R WCI  20
GRAND FORKS    CLOUDY    32  30  92 SE12      29.58F WCI  23
FARGO          FOG       36  30  79 SE15      29.57F WCI  27
BUFFALO SD     CLOUDY    39  36  89 W17G24    29.32F WCI  30
RAPID CITY     LGT RAIN  39  32  76 NW13      29.45R WCI  31
$$

REGIONAL REPORTS...WYOMING/IDAHO/WASHINGTON
CITY           SKY/WX    TMP DP  RH WIND       PRES   REMARKS
GILLETTE       CLOUDY    37  28  70 W12       29.50R WCI  29
SHERIDAN       CLOUDY    39  27  62 NW21G35   29.55R WCI  29
CODY           MOCLDY    36  28  73 W3        29.61R
YELLOWSTONE LA PTCLDY    27  19  72 W12G22    29.73R WCI  16
SALMON         MOCLDY    43  23  45 NW7       29.87R
MULLAN PASS    N/A       28  27  96 NW9       29.82S WCI  19
SAND POINT     MOCLDY    43  34  71 W8        29.84R
SPOKANE        CLOUDY    43  36  76 SW12      29.88R
$$

REGIONAL REPORTS...SASKATCHEWAN
CITY           SKY/WX    TMP DP  RH WIND       PRES   REMARKS
SWIFT CURRENT  LGT SNOW  27  27 100 NW16      29.35R VSB 1    WCI  15

$$




USA.gov is the U.S. government's official web portal to all federal, state and local government web resources and services.